Corning, AR

2:55 PM CDT on March 30, 2017 (GMT -0500)
Corning

Weather History for K4M9 - May, 2014

Change the Weather History Date:

Thursday, May 8, 2014

  Actual Average (KARG) Record (KARG)
Temperature  
Mean Temperature 76 °F -  
Max Temperature 84 °F 75 °F 84 °F (2004)
Min Temperature 68 °F 56 °F 48 °F (1999)
Cooling Degree Days 11    
Growing Degree Days 26 (Base 50)    
Moisture  
Dew Point 64 °F    
Average Humidity 69    
Maximum Humidity 100    
Minimum Humidity 45    
Precipitation  
Precipitation 0.67 in - - ()
Sea Level Pressure  
Sea Level Pressure 29.95 in    
Wind  
Wind Speed 14 mph (South)    
Max Wind Speed 28 mph    
Max Gust Speed 38 mph    
Visibility 8 miles    
Events Rain , Thunderstorm    
Averages and records for this station are not official NWS values.
T = Trace of Precipitation, MM = Missing Value Source: NWS Daily Summary

Daily Weather History Graph

Daily Weather History Graph

Search for Another Location

Airport or City:

Trip Planner

Search our weather history database for the weather conditions in past years. The results will help you decide how hot, cold, wet, or windy it might be!

Date:

Astronomy

May. 08, 2014 Rise Set
Actual Time 6:02 AM CDT 7:56 PM CDT
Civil Twilight 5:33 AM CDT 8:24 PM CDT
Nautical Twilight 4:59 AM CDT 8:59 PM CDT
Astronomical Twilight 4:23 AM CDT 9:35 PM CDT
Moon 2:07 PM CDT (5/8) 2:22 AM CDT (5/8)
Length of Visible Light 14h 50m
Length of Day
13h 54m
Waxing Gibbous, 65% of the Moon is Illuminated
May 8
Waxing Gibbous
May 14
Full
May 21
Last Quarter
May 28
New
Jun 5
First Quarter

Hourly Weather History & Observations

Time (CDT) Temp. Heat Index Dew Point Humidity Pressure Visibility Wind Dir Wind Speed Gust Speed Precip Events Conditions
12:15 AM 71.6 °F - 59.0 °F 64% 29.92 in 10.0 mi SSE 9.2 mph - N/A   Clear
12:35 AM 71.6 °F - 59.0 °F 64% 29.92 in 10.0 mi SSE 6.9 mph - N/A   Clear
12:55 AM 71.6 °F - 59.0 °F 64% 29.91 in 10.0 mi South 11.5 mph - N/A   Clear
1:15 AM 71.6 °F - 59.0 °F 64% 29.91 in 10.0 mi South 11.5 mph - N/A   Clear
1:35 AM 71.6 °F - 59.0 °F 64% 29.91 in 10.0 mi South 13.8 mph 18.4 mph N/A   Clear
1:55 AM 73.4 °F - 59.0 °F 61% 29.92 in 10.0 mi South 17.3 mph 21.9 mph N/A   Clear
2:15 AM 73.4 °F - 59.0 °F 61% 29.92 in 10.0 mi South 15.0 mph - N/A   Clear
2:35 AM 71.6 °F - 60.8 °F 69% 29.92 in 10.0 mi South 15.0 mph - N/A   Clear
2:55 AM 71.6 °F - 60.8 °F 69% 29.93 in 10.0 mi South 12.7 mph - N/A   Clear
3:35 AM 71.6 °F - 60.8 °F 69% 29.94 in 10.0 mi South 12.7 mph - N/A   Clear
3:55 AM 73.4 °F - 60.8 °F 65% 29.94 in 10.0 mi South 15.0 mph - N/A   Clear
4:15 AM 71.6 °F - 60.8 °F 69% 29.95 in 10.0 mi SSW 16.1 mph 21.9 mph N/A   Clear
4:35 AM 71.6 °F - 60.8 °F 69% 29.95 in 10.0 mi South 15.0 mph - N/A   Clear
4:55 AM 71.6 °F - 60.8 °F 69% 29.96 in 10.0 mi South 15.0 mph - N/A   Clear
5:15 AM 71.6 °F - 62.6 °F 73% 29.96 in 10.0 mi South 13.8 mph 18.4 mph N/A   Clear
5:35 AM 71.6 °F - 62.6 °F 73% 29.96 in 10.0 mi South 15.0 mph - N/A   Clear
5:55 AM 71.6 °F - 62.6 °F 73% 29.96 in 10.0 mi South 17.3 mph - N/A   Clear
6:15 AM 71.6 °F - 62.6 °F 73% 29.97 in 10.0 mi SSW 13.8 mph - N/A   Clear
6:35 AM 71.6 °F - 64.4 °F 78% 29.98 in 10.0 mi SSW 16.1 mph 26.5 mph N/A   Scattered Clouds
6:55 AM 71.6 °F - 64.4 °F 78% 29.99 in 10.0 mi SSW 17.3 mph 23.0 mph N/A   Mostly Cloudy
7:15 AM 71.6 °F - 64.4 °F 78% 30.00 in 10.0 mi SSW 18.4 mph - N/A   Mostly Cloudy
7:35 AM 73.4 °F - 64.4 °F 73% 30.00 in 10.0 mi SSW 17.3 mph 21.9 mph N/A   Partly Cloudy
7:55 AM 73.4 °F - 64.4 °F 73% 30.00 in 10.0 mi SSW 17.3 mph 25.3 mph N/A   Clear
8:15 AM 73.4 °F - 64.4 °F 73% 30.00 in 8.0 mi SSW 17.3 mph 24.2 mph N/A   Clear
8:35 AM 75.2 °F - 64.4 °F 69% 30.00 in 4.0 mi SSW 20.7 mph 29.9 mph N/A   Haze
8:55 AM 77.0 °F - 66.2 °F 69% 30.01 in 5.0 mi South 20.7 mph 28.8 mph N/A   Haze
9:15 AM 77.0 °F - 66.2 °F 69% 30.00 in 10.0 mi SSW 17.3 mph 25.3 mph N/A   Clear
9:35 AM 77.0 °F - 66.2 °F 69% 29.99 in 9.0 mi South 20.7 mph 27.6 mph N/A   Clear
9:55 AM 78.8 °F - 66.2 °F 65% 29.99 in 9.0 mi SSW 24.2 mph - N/A   Clear
10:15 AM 78.8 °F - 66.2 °F 65% 29.99 in 9.0 mi SSW 18.4 mph - N/A   Clear
10:35 AM 80.6 °F 82.7 °F 66.2 °F 61% 29.99 in 9.0 mi South 18.4 mph 25.3 mph N/A   Clear
10:55 AM 80.6 °F 82.7 °F 66.2 °F 61% 29.99 in 9.0 mi SSW 20.7 mph 31.1 mph N/A   Clear
11:15 AM 80.6 °F 82.7 °F 66.2 °F 61% 29.98 in 10.0 mi SSW 20.7 mph 26.5 mph N/A   Clear
11:35 AM 80.6 °F 82.7 °F 66.2 °F 61% 29.98 in 8.0 mi South 20.7 mph 29.9 mph N/A   Clear
11:55 AM 82.4 °F 83.9 °F 64.4 °F 54% 29.97 in 9.0 mi SSW 19.6 mph 28.8 mph N/A   Clear
12:15 PM 82.4 °F 83.9 °F 64.4 °F 54% 29.96 in 9.0 mi SSW 23.0 mph 29.9 mph N/A   Clear
12:35 PM 82.4 °F 83.9 °F 64.4 °F 54% 29.96 in 9.0 mi South 18.4 mph 24.2 mph N/A   Clear
12:55 PM 80.6 °F 82.3 °F 64.4 °F 58% 29.96 in 10.0 mi South 19.6 mph 24.2 mph N/A   Clear
1:35 PM 82.4 °F 83.9 °F 64.4 °F 54% 29.95 in 10.0 mi South 19.6 mph 25.3 mph N/A   Clear
1:55 PM 82.4 °F 83.4 °F 62.6 °F 51% 29.95 in 10.0 mi SSW 19.6 mph 29.9 mph N/A   Clear
2:15 PM 84.2 °F 85.0 °F 62.6 °F 48% 29.95 in 9.0 mi South 19.6 mph 25.3 mph N/A   Clear
2:35 PM 82.4 °F 82.9 °F 60.8 °F 48% 29.95 in 9.0 mi SSW 18.4 mph 25.3 mph N/A   Clear
2:55 PM 82.4 °F 82.9 °F 60.8 °F 48% 29.94 in 10.0 mi South 20.7 mph - N/A   Clear
3:35 PM 82.4 °F 82.9 °F 60.8 °F 48% 29.94 in 8.0 mi South 18.4 mph - N/A   Clear
3:55 PM 82.4 °F 82.5 °F 59.0 °F 45% 29.94 in 8.0 mi SSW 23.0 mph 28.8 mph N/A   Clear
4:15 PM 82.4 °F 82.5 °F 59.0 °F 45% 29.94 in 10.0 mi South 19.6 mph - N/A   Clear
4:35 PM 80.6 °F 81.1 °F 59.0 °F 48% 29.94 in 10.0 mi South 16.1 mph - N/A   Clear
4:55 PM 80.6 °F 81.1 °F 59.0 °F 48% 29.94 in 10.0 mi South 16.1 mph 24.2 mph N/A   Clear
5:15 PM 80.6 °F 81.5 °F 60.8 °F 51% 29.93 in 9.0 mi SSE 12.7 mph - N/A   Clear
5:35 PM 80.6 °F 81.8 °F 62.6 °F 54% 29.93 in 9.0 mi South 13.8 mph - N/A   Clear
5:55 PM 80.6 °F 81.8 °F 62.6 °F 54% 29.93 in 8.0 mi South 11.5 mph 17.3 mph N/A   Clear
6:15 PM 78.8 °F - 62.6 °F 57% 29.92 in 10.0 mi South 10.4 mph - N/A   Clear
6:35 PM 78.8 °F - 62.6 °F 57% 29.92 in 10.0 mi South 11.5 mph - N/A   Clear
6:55 PM 77.0 °F - 64.4 °F 65% 29.95 in 3.0 mi SW 27.6 mph 38.0 mph N/A   Haze
7:15 PM 71.6 °F - 66.2 °F 83% 29.94 in 4.0 mi SSW 12.7 mph - N/A Rain , Thunderstorm Light Rain
7:35 PM 69.8 °F - 66.2 °F 88% 29.96 in 5.0 mi South 15.0 mph 19.6 mph 0.02 in Rain Light Rain
7:55 PM 68.0 °F - 66.2 °F 94% 29.95 in 4.0 mi South 12.7 mph - 0.03 in Rain Light Rain
8:15 PM 68.0 °F - 68.0 °F 100% 29.94 in 5.0 mi SSE 4.6 mph - N/A Rain , Thunderstorm Light Rain
8:55 PM 68.0 °F - 68.0 °F 100% 29.96 in 1.5 mi SSW 6.9 mph - 0.11 in Rain Light Rain
9:15 PM 68.0 °F - 68.0 °F 100% 29.95 in 3.0 mi SSW 6.9 mph - 0.08 in Rain Light Rain
9:35 PM 68.0 °F - 68.0 °F 100% 29.93 in 2.5 mi East 5.8 mph - 0.13 in Rain Rain
9:55 PM 68.0 °F - 68.0 °F 100% 29.94 in 2.5 mi SSE 8.1 mph - 0.37 in Rain Heavy Rain
10:15 PM 68.0 °F - 68.0 °F 100% 29.95 in 4.0 mi SW 12.7 mph 16.1 mph 0.03 in Rain , Thunderstorm Light Rain
10:35 PM 68.0 °F - 68.0 °F 100% 29.94 in 3.0 mi SW 10.4 mph - 0.06 in Rain Light Rain
10:55 PM 68.0 °F - 68.0 °F 100% 29.94 in 1.0 mi SSW 8.1 mph - 0.11 in Rain , Thunderstorm Thunderstorms and Rain
11:15 PM 68.0 °F - 68.0 °F 100% 29.93 in 2.0 mi South 9.2 mph - 0.03 in Rain Light Rain
11:35 PM 68.0 °F - 68.0 °F 100% 29.92 in 3.0 mi SSW 6.9 mph - 0.05 in Rain Light Rain